Weather History for KGEV - March, 2014

Change the Weather History Date:

Monday, March 17, 2014

  Actual Average Record
Temperature  
Mean Temperature 29 °F -  
Max Temperature 32 °F 51 °F 72 °F (1982)
Min Temperature 26 °F 28 °F 15 °F (1969)
Degree Days  
Heating Degree Days 36    
Moisture  
Dew Point 28 °F    
Average Humidity 97    
Maximum Humidity 99    
Minimum Humidity 96    
Precipitation  
Precipitation 0.00 in - - ()
Sea Level Pressure  
Sea Level Pressure 29.77 in    
Wind  
Wind Speed 1 mph (SSE)    
Max Wind Speed 4 mph    
Max Gust Speed -    
Visibility 1 miles    
Events Fog , Snow    
Averages and records for this station are not official NWS values.
T = Trace of Precipitation, MM = Missing Value Source: NWS Daily Summary

Daily Weather History Graph

Daily Weather History Graph

Search for Another Location

Airport or City:

Trip Planner

Search our weather history database for the weather conditions in past years. The results will help you decide how hot, cold, wet, or windy it might be!

Date:

Astronomy

Mar. 17, 2014 Rise Set
Actual Time 7:33 AM EDT 7:34 PM EDT
Civil Twilight 7:07 AM EDT 8:00 PM EDT
Nautical Twilight 6:38 AM EDT 8:30 PM EDT
Astronomical Twilight 6:07 AM EDT 9:00 PM EDT
Moon 8:47 PM EDT (3/17) 7:50 AM EDT (3/17)
Length of Visible Light 12h 52m
Length of Day
12h 01m
Full, 99% of the Moon is Illuminated
Mar 17
Full
Mar 23
Last Quarter
Mar 30
New
Apr 7
First Quarter
Apr 15
Full

Hourly Weather History & Observations

Time (EDT) Temp. Windchill Dew Point Humidity Pressure Visibility Wind Dir Wind Speed Gust Speed Precip Events Conditions
12:15 AM 32.0 °F - 31.8 °F 99% 29.79 in 2.0 mi Calm Calm - N/A   Overcast
12:35 AM 32.0 °F - 31.8 °F 99% 29.79 in 1.8 mi Calm Calm - N/A   Overcast
12:55 AM 32.0 °F - 31.8 °F 99% 29.78 in 1.0 mi Calm Calm - N/A   Overcast
1:15 AM 32.0 °F - 31.6 °F 99% 29.78 in 1.0 mi Calm Calm - N/A Snow Light Snow
1:35 AM 32.0 °F - 31.8 °F 99% 29.79 in 0.8 mi Calm Calm - N/A   Overcast
1:55 AM 32.0 °F - 31.8 °F 99% 29.77 in 0.2 mi Calm Calm - N/A Fog Fog
2:15 AM 32.0 °F - 31.6 °F 99% 29.77 in 1.0 mi Calm Calm - N/A   Overcast
2:35 AM 32.0 °F - 31.5 °F 98% 29.77 in 0.2 mi Calm Calm - N/A Fog Fog
2:55 AM 31.6 °F - 31.1 °F 98% 29.76 in 0.2 mi Calm Calm - N/A Fog Fog
3:15 AM 31.3 °F - 30.9 °F 99% 29.76 in 0.2 mi Calm Calm - N/A Fog Light Freezing Fog
3:35 AM 31.3 °F - 30.7 °F 98% 29.75 in 0.2 mi Calm Calm - N/A Fog Light Freezing Fog
3:55 AM 31.1 °F - 30.4 °F 97% 29.74 in 0.2 mi Calm Calm - N/A Fog Light Freezing Fog
4:15 AM 30.9 °F - 30.2 °F 97% 29.74 in 0.2 mi Calm Calm - N/A Fog Light Freezing Fog
4:35 AM 30.7 °F - 30.2 °F 98% 29.73 in 0.2 mi Calm Calm - N/A Fog Light Freezing Fog
4:55 AM 30.4 °F - 30.0 °F 99% 29.73 in 0.2 mi Calm Calm - N/A Fog Light Freezing Fog
5:20 AM 29.8 °F - 29.3 °F 98% 29.73 in 0.2 mi Calm Calm - N/A Fog Light Freezing Fog
5:35 AM 30.0 °F 26.5 °F 29.5 °F 98% 29.72 in 0.2 mi SSE 3.5 mph - N/A Fog Light Freezing Fog
5:55 AM 29.5 °F 25.9 °F 29.1 °F 99% 29.73 in 0.5 mi SSE 3.5 mph - N/A Fog Light Freezing Fog
6:15 AM 29.5 °F 25.9 °F 29.1 °F 99% 29.73 in 0.5 mi SSE 3.5 mph - N/A   Overcast
6:35 AM 29.3 °F 25.6 °F 28.6 °F 97% 29.73 in 1.0 mi SSE 3.5 mph - N/A   Overcast
6:55 AM 29.1 °F 25.4 °F 28.4 °F 97% 29.72 in 3.0 mi SSE 3.5 mph - N/A Snow Light Snow
7:15 AM 28.8 °F 25.0 °F 28.2 °F 98% 29.74 in 4.0 mi SSE 3.5 mph - N/A   Overcast
7:35 AM 28.9 °F - 28.4 °F 98% 29.74 in 2.5 mi Calm Calm - N/A   Overcast
7:55 AM 28.9 °F - 28.4 °F 98% 29.75 in 2.5 mi Calm Calm - N/A   Overcast
8:15 AM 28.6 °F 24.8 °F 28.0 °F 98% 29.75 in 7.0 mi SSE 3.5 mph - N/A   Overcast
8:35 AM 28.4 °F - 27.7 °F 97% 29.77 in 10.0 mi Calm Calm - N/A   Overcast
8:55 AM 28.0 °F 24.2 °F 27.5 °F 98% 29.75 in 1.2 mi SE 3.5 mph - N/A Snow Light Snow
9:15 AM 27.9 °F - 27.3 °F 98% 29.75 in 0.5 mi Calm Calm - N/A   Overcast
9:35 AM 28.0 °F - 27.5 °F 98% 29.75 in 0.2 mi Calm Calm - N/A Snow Light Snow
9:55 AM 27.7 °F - 27.3 °F 99% 29.77 in 0.2 mi Calm Calm - N/A Snow Light Snow
10:15 AM 27.9 °F - 27.3 °F 98% 29.79 in 0.2 mi Calm Calm - N/A   Overcast
10:35 AM 28.4 °F - 27.9 °F 98% 29.78 in 0.2 mi Calm Calm - N/A   Overcast
10:55 AM 28.0 °F - 27.5 °F 98% 29.78 in 0.2 mi Calm Calm - N/A Fog Light Freezing Fog
11:15 AM 28.4 °F 24.6 °F 27.9 °F 98% 29.78 in 0.8 mi SSE 3.5 mph - N/A   Overcast
11:35 AM 28.4 °F - 27.5 °F 96% 29.78 in 0.8 mi Calm Calm - N/A   Overcast
11:55 AM 28.4 °F - 27.9 °F 98% 29.78 in 0.2 mi Calm Calm - N/A Fog Light Freezing Fog
12:15 PM 27.7 °F 23.8 °F 27.1 °F 98% 29.77 in 0.2 mi SE 3.5 mph - N/A Fog Light Freezing Fog
12:35 PM 28.0 °F - 27.3 °F 97% 29.78 in 0.8 mi Calm Calm - N/A   Overcast
12:55 PM 27.9 °F 24.0 °F 27.1 °F 97% 29.78 in 0.5 mi SSE 3.5 mph - N/A Fog Light Freezing Fog
1:15 PM 28.0 °F 24.2 °F 27.3 °F 97% 29.78 in 0.2 mi SSE 3.5 mph - N/A Fog Light Freezing Fog
1:35 PM 28.2 °F - 27.5 °F 97% 29.78 in 0.2 mi Calm Calm - N/A Fog Light Freezing Fog
1:55 PM 28.0 °F 24.2 °F 27.3 °F 97% 29.79 in 0.2 mi SSE 3.5 mph - N/A Fog Light Freezing Fog
2:15 PM 28.0 °F - 27.3 °F 97% 29.78 in 0.2 mi Calm Calm - N/A Fog Light Freezing Fog
2:35 PM 28.0 °F - 27.3 °F 97% 29.77 in 0.2 mi Calm Calm - N/A Fog Light Freezing Fog
2:55 PM 28.2 °F 24.4 °F 27.5 °F 97% 29.78 in 0.2 mi South 3.5 mph - N/A Fog Light Freezing Fog
3:15 PM 27.9 °F - 27.1 °F 97% 29.77 in 0.2 mi Calm Calm - N/A Fog Light Freezing Fog
3:35 PM 28.4 °F - 27.5 °F 96% 29.75 in 0.2 mi Calm Calm - N/A Fog Light Freezing Fog
3:55 PM 27.9 °F 24.0 °F 27.1 °F 97% 29.77 in 0.2 mi South 3.5 mph - N/A Fog Light Freezing Fog
4:15 PM 28.2 °F - 27.5 °F 97% 29.77 in 0.2 mi Calm Calm - N/A Fog Light Freezing Fog
4:35 PM 27.7 °F 23.8 °F 27.0 °F 97% 29.76 in 0.2 mi SSE 3.5 mph - N/A Fog Light Freezing Fog
4:55 PM 27.9 °F - 27.1 °F 97% 29.75 in 0.2 mi Calm Calm - N/A Fog Light Freezing Fog
5:15 PM 27.5 °F - 27.0 °F 98% 29.75 in 0.2 mi Calm Calm - N/A Fog Light Freezing Fog
5:35 PM 27.3 °F - 26.6 °F 97% 29.76 in 0.2 mi Calm Calm - N/A Fog Light Freezing Fog
5:55 PM 27.9 °F - 27.1 °F 97% 29.75 in 0.2 mi Calm Calm - N/A Fog Light Freezing Fog
6:15 PM 27.9 °F - 27.1 °F 97% 29.77 in 0.2 mi Calm Calm - N/A Fog Light Freezing Fog
6:35 PM 27.5 °F - 26.8 °F 97% 29.76 in 0.2 mi Calm Calm - N/A Fog Light Freezing Fog
6:55 PM 28.0 °F - 27.3 °F 97% 29.78 in 0.2 mi Calm Calm - N/A Fog Light Freezing Fog
7:15 PM 27.7 °F - 27.1 °F 98% 29.78 in 0.2 mi Calm Calm - N/A Fog Light Freezing Fog
7:35 PM 27.3 °F 23.4 °F 26.6 °F 97% 29.78 in 0.2 mi South 3.5 mph - N/A Fog Light Freezing Fog
7:55 PM 27.1 °F - 26.4 °F 97% 29.78 in 0.2 mi Calm Calm - N/A Fog Light Freezing Fog
8:15 PM 27.1 °F - 26.4 °F 97% 29.80 in 0.2 mi Calm Calm - N/A Fog Light Freezing Fog
8:35 PM 27.0 °F - 26.2 °F 97% 29.79 in 0.2 mi Calm Calm - N/A Fog Light Freezing Fog
8:55 PM 26.6 °F - 25.7 °F 96% 29.79 in 0.2 mi Calm Calm - N/A Fog Light Freezing Fog
9:15 PM 27.3 °F - 26.6 °F 97% 29.82 in 0.5 mi Calm Calm - N/A Fog Light Freezing Fog
9:35 PM 26.8 °F - 25.9 °F 96% 29.81 in 0.2 mi Calm Calm - N/A Fog Light Freezing Fog
9:55 PM 26.6 °F - 25.7 °F 96% 29.82 in 0.2 mi Calm Calm - N/A Fog Light Freezing Fog
10:15 PM 26.4 °F - 25.5 °F 96% 29.83 in 0.2 mi Calm Calm - N/A Fog Light Freezing Fog
10:35 PM 26.2 °F - 25.3 °F 96% 29.83 in 0.2 mi Calm Calm - N/A Fog Light Freezing Fog
10:55 PM 26.1 °F - 25.2 °F 96% 29.84 in 0.2 mi Calm Calm - N/A Fog Light Freezing Fog
11:35 PM 26.4 °F - 25.5 °F 96% 29.85 in 0.2 mi Calm Calm - N/A Fog Light Freezing Fog
11:55 PM 26.6 °F - 25.7 °F 96% 29.87 in 0.5 mi Calm Calm - N/A Fog Light Freezing Fog